Regional Weather Roundup
Issued by NWS

Home | Current Version | Previous Version | Graphics & Text | Print | Product List | Glossary On
Versions: 1 2 3 4 5 6 7 8 9 10 11 12 13 14 15 16 17 18 19 20 21 22 23 24 25 26 27 28 29 30 31 32 33 34 35 36 37 38 39 40 41 42 43 44 45 46 47 48
000
ASUS45 KBOU 011407
RWRCO

WEATHER ROUNDUP FOR COLORADO
NATIONAL WEATHER SERVICE DENVER/BOULDER CO
700 AM MST SUN FEB 01 2015

NOTE: "FAIR" INDICATES FEW OR NO CLOUDS BELOW 12000 FEET WITH NO
SIGNIFICANT WEATHER AND/OR OBSTRUCTIONS TO VISIBILITY.

COZ001>005-013-030-031-011500-
...NORTHWEST COLORADO...

CITY           SKY/WX    TMP DP  RH WIND       PRES   REMARKS
CRAIG          CLOUDY    16  12  84 CALM      30.13R
HAYDEN         CLOUDY    19  14  79 CALM      30.10S
MEEKER         CLEAR     13   8  81 CALM      30.14R
MOUNT WERNER   NOT AVBL
STEAMBOAT SPGS MOCLDY    15  14  93 CALM      30.09S
WALDEN         MOCLDY    12   9  85 NE5       30.03R WCI   4
$$

COZ006>008-011-011500-
...WEST CENTRAL VALLEYS...

CITY           SKY/WX    TMP DP  RH WIND       PRES   REMARKS
GRAND JUNCTION MOCLDY    29  27  92 E3        30.15R
MONTROSE       CLEAR     28  23  81 SE7       30.16R WCI  21
EAGLE          MOCLDY    18  16  93 VRB6      30.14R WCI   9
RIFLE          PTCLDY    22  18  85 CALM      30.15R
DELTA          CLOUDY    33  32  96 CALM      30.16R
NUCLA          CLEAR     28  27  93 CALM      30.18R
$$

COZ017>023-064>068-011500-
...SOUTHWEST COLORADO...

CITY           SKY/WX    TMP DP  RH WIND       PRES   REMARKS
DURANGO        CLOUDY    29  28  96 SW5       30.06R WCI  24
CORTEZ         CLEAR     24  21  88 MISG      30.08R
PAGOSA SPRINGS CLOUDY    27  27 100 NE3       30.05R
TELLURIDE      PTCLDY    19   3  49 SE3       30.12R
WOLF CREEK PAS PTCLDY    12  -8  40 N22G28    30.05R WCI  -7
$$

COZ009-010-012-014-032>034-037-058>063-011500-
...CENTRAL COLORADO...

CITY           SKY/WX    TMP DP  RH WIND       PRES   REMARKS
ASPEN          CLOUDY    15   9  76 S7        30.09R WCI   5
BUENA VISTA    PTCLDY    19   5  53 NE3       30.01R
COPPER MTN     NOT AVBL
BERTHOUD PASS  FAIR       0  -6  78 NW45G58   29.82F HAZE    WCI -31
COTTONWOOD PAS PTCLDY    21  -6  30 N8G23     29.95S WCI  12
GUNNISON       PTCLDY    16  -2  45 N3        30.11R
KREMMLING      PTCLDY    12   7  79 E5        30.07S WCI   4
LEADVILLE      MOCLDY    11   2  67 NW12G18   29.98S WCI  -3
MONARCH PASS     N/A      5   1  85 MISG      30.05S
SALIDA         PTCLDY    18  13  79 CALM      30.10R
SUNLIGHT       CLEAR    N/A N/A N/A W3          N/A
WILKERSON PASS CLEAR      9  -4  56 NW13G46   29.93R WCI  -7
$$

COZ069>075-011500-
...SAN LUIS VALLEY/SANGRE DE CRISTO MOUNTAINS...

CITY           SKY/WX    TMP DP  RH WIND       PRES   REMARKS
ALAMOSA        PTCLDY    15  11  83 S5        30.04R WCI   8
LA VETA PASS   PTCLDY    14  12  92 MISG      29.98S
SAGUACHE       PTCLDY    18   5  57 NE9       30.04R WCI   6
$$

COZ035-036-038>040-011500-
...NORTHERN COLORADO FRONT RANGE...

CITY           SKY/WX    TMP DP  RH WIND       PRES   REMARKS
DENVER INTL AP CLOUDY    19  15  84 NE8       30.09R WCI   9
DMNS CITY PARK   N/A     20  19  96 SE6G13    30.11R WCI  12
AURORA         LGT SNOW  18  17  94 E6        30.09R FOG     WCI  10
FRONT RANGE AP NOT AVBL
ERIE MUNI ARPT CLOUDY    22  18  87 CALM      30.11R
BOULDER MUN AP CLOUDY    25  21  86 CALM      30.09S
CENTENNIAL     CLOUDY    18  14  84 E6        30.08R WCI  10
BROOMFIELD     NOT AVBL
FORT COLLINS   MOCLDY    21  16  79 SE7       30.12R WCI  13
LONGMONT       CLOUDY    25  19  78 SE5       30.13R WCI  19
$$

COZ041-046-047-076>085-087-088-011500-
...PIKES PEAK/PALMER DIVIDE AND SOUTHERN FOOTHILLS...

CITY           SKY/WX    TMP DP  RH WIND       PRES   REMARKS
COLO. SPRINGS  PTCLDY    20  13  74 N15       30.04S WCI   6
A. F. ACADEMY  CLEAR     16  12  84 N8        30.03R WCI   5
ELLICOTT       CLEAR    N/A N/A N/A NE15        N/A
FALCON         CLEAR     15  11  83 N15G21    30.02R WCI   0
FORT CARSON    CLEAR     21  15  76 N9        30.04R WCI  11
LIMON          LGT SNOW  18  14  84 N13       30.10R FOG     WCI   5
MONUMENT HILL  FLURRIES  10   9  92 W3        30.03R
TRINIDAD       CLOUDY    26  24  92 NE5       30.07R WCI  20
$$

COZ042>045-048>051-090-091-011500-
...NORTHEAST COLORADO...

CITY           SKY/WX    TMP DP  RH WIND       PRES   REMARKS
GREELEY ARPT   MOCLDY    23  12  63 NE7       30.12R WCI  15
AKRON          CLOUDY    19  15  84 N20       30.10R WCI   3
BURLINGTON     CLOUDY    21  16  81 N26G35    30.10R WCI   4
WRAY           PTCLDY    18  14  84 N14G21    30.15R WCI   4
STERLING       PTCLDY    21  16  79 N17G29    30.13R WCI   7
HOLYOKE        NOT AVBL
FORT MORGAN    CLOUDY    22  15  75 N16       30.13R WCI   8
$$

COZ086-089-092>099-011500-
...SOUTHEAST COLORADO...

CITY           SKY/WX    TMP DP  RH WIND       PRES   REMARKS
PUEBLO         CLEAR     26  20  77 NE6       30.09R WCI  19
LA JUNTA       CLEAR     26  20  77 N5        30.11R WCI  20
LAMAR          CLOUDY    27  21  78 N9        30.10R WCI  18
SPRINGFIELD      N/A     25  21  85 N17       30.08R WCI  12
$$


USA.gov is the U.S. government's official web portal to all federal, state and local government web resources and services.